STARLINK-4195 (52870 NORAD) Tracking and Keplerian Element Data

This shows tracking and keplerian element data for the satellite.

Feedback or suggestion? Click here.




ElementValue
Catalog52870
NameSTARLINK-4195
Epoch Orbit130
Epoch Day247.83334491
Epoch Year2022
RAAN18.6411
Inclination53.2174
Eccentricity0.000153
Argument of Perigee51.4169
Mean Anonmoly232.8653
Mean Motion15.1590098
Decay Rate-0.01070441
L11 52870U 22062AS 22247.83334491 -.01070441 00000+0 -59598-1 0 9991
L22 52870 53.2174 18.6411 0001530 51.4169 232.8653 15.15900980 1303

Live tracking and technical data element details for STARLINK-4195 (NORAD 52870). STARLINK-4195 can be tracked NOW for your location showing map with azimuth and elevation plus other details from your city location.

Track the satellite on the map from your city or location and see movement details for azimuth, elevation, latitude, longitude, range, height, and movement on the map or in text.







IsCatalogInMostPopularTable: catalog: 52870, numindb: 5
Update: records affected: 1



GetName: 52870 STARLINK-4195

Hit Count: updated at: Sun, 25 Sep 2022 07:17:11 GMT